This demonstration page uses our WeatherBlox Daily Observations layout. Learn more.

Left ArrowRight Arrow

39.51506, -84.39828

Hourly Observations for April 8, 2017

Temp ( °F °C ) Dew Point ( °F °C ) Humidity (%) Winds ( mph kmh ) Pressure ( in mb ) Visibility ( mi km ) Precip ( " mm )
12:15 am 00:15 Clear 37 2.6 29 -1.6 74 74 Calm 30.09 1019 10 16 0.00 0.00
12:35 am 00:35 Clear 37 3 30 -1.2 74 74 Calm 30.12 1020 10 16 0.00 0.00
12:55 am 00:55 Clear 37 2.6 28 -2.2 71 71 Calm 30.12 1020 10 16 0.00 0.00
1:15 am 01:15 Clear 36 2.4 27 -3 68 68 Calm 30.12 1020 10 16 0.00 0.00
1:35 am 01:35 Clear 37 2.6 29 -1.6 74 74 Calm 30.12 1020 10 16 0.00 0.00
1:55 am 01:55 Clear 37 2.6 30 -1.1 77 77 Calm 30.12 1020 10 16 0.00 0.00
2:15 am 02:15 Clear 34 1.2 28 -2.1 79 79 Calm 30.12 1020 10 16 0.00 0.00
2:35 am 02:35 Clear 34 1.2 28 -2 79 79 Calm 30.12 1020 10 16 0.00 0.00
2:55 am 02:55 Clear 34 1.2 28 -2 79 79 Calm 30.12 1020 10 16 0.00 0.00
3:15 am 03:15 Clear 34 1.2 28 -2 79 79 Calm 30.12 1020 10 16 0.00 0.00
3:35 am 03:35 Clear 34 1.2 28 -2 79 79 Calm 30.12 1020 10 16 0.00 0.00
3:55 am 03:55 Clear 34 1.2 28 -2 79 79 Calm 30.12 1020 10 16 0.00 0.00
4:15 am 04:15 Clear 34 1.2 29 -1.7 81 81 Calm 30.12 1020 10 16 0.00 0.00
4:35 am 04:35 Clear 34 1.2 29 -1.6 82 82 Calm 30.12 1020 10 16 0.00 0.00
4:55 am 04:55 Clear 32 -0.1 27 -2.9 82 82 Calm 30.12 1020 10 16 0.00 0.00
5:15 am 05:15 Clear 29 -1.4 24 -4.3 81 81 Calm 30.12 1020 10 16 0.00 0.00
5:35 am 05:35 Clear 33 0.3 27 -3 79 79 Calm 30.12 1020 10 16 0.00 0.00
5:55 am 05:55 Clear 32 0 26 -3.4 78 78 Calm 30.12 1020 10 16 0.00 0.00
6:15 am 06:15 Clear 32 0 26 -3.3 79 79 Calm 30.15 1021 10 16 0.00 0.00
6:35 am 06:35 Clear 32 0 26 -3.2 79 79 Calm 30.15 1021 10 16 0.00 0.00
6:55 am 06:55 Clear 31 -0.4 26 -3.4 80 80 Calm 30.15 1021 10 16 0.00 0.00
7:15 am 07:15 Sunny 32 0 27 -3 80 80 Calm 30.15 1021 10 16 0.00 0.00
7:35 am 07:35 Sunny 32 0 26 -3.3 79 79 Calm 30.18 1022 10 16 0.00 0.00
7:55 am 07:55 Sunny 34 1.2 28 -2 79 79 Calm 30.18 1022 10 16 0.00 0.00
8:15 am 08:15 Sunny 34 1.2 29 -1.5 82 82 Calm 30.18 1022 10 16 0.00 0.00
8:35 am 08:35 Sunny 37 2.5 30 -1.1 77 77 Calm 30.18 1022 10 16 0.00 0.00
8:55 am 08:55 Sunny 39 4 27 -2.6 62 62 Calm 30.21 1023 10 16 0.00 0.00
9:15 am 09:15 Sunny 40 4.7 26 -3.5 56 56 Calm 30.21 1023 10 16 0.00 0.00
9:35 am 09:35 Sunny 42 5.6 26 -3.5 52 52 Calm 30.18 1022 10 16 0.00 0.00
9:55 am 09:55 Sunny 46 7.8 26 -3.6 45 45 Calm 30.18 1022 10 16 0.00 0.00
10:15 am 10:15 Sunny 49 9.6 25 -4 38 38 Calm 30.18 1022 10 16 0.00 0.00
10:35 am 10:35 Sunny 49 9.6 17 -8.2 28 28 Calm 30.18 1022 10 16 0.00 0.00
10:55 am 10:55 Sunny 50 9.8 16 -8.7 26 26 Calm 30.18 1022 10 16 0.00 0.00
11:15 am 11:15 Sunny 54 12.4 18 -8 23 23 Calm 30.18 1022 10 16 0.00 0.00
11:35 am 11:35 Sunny 55 12.5 17 -8.5 22 22 E 3 6 30.15 1021 10 16 0.00 0.00
11:55 am 11:55 Sunny 55 12.5 12 -11.3 18 18 NNE 3 6 30.15 1021 10 16 0.00 0.00
12:15 pm 12:15 Sunny 55 12.6 10 -12 17 17 Calm 30.15 1021 10 16 0.00 0.00
12:35 pm 12:35 Sunny 55 12.7 10 -12 17 17 Calm 30.15 1021 10 16 0.00 0.00
12:55 pm 12:55 Sunny 57 13.8 2 -16.8 10 10 Calm 30.15 1021 10 16 0.00 0.00
1:15 pm 13:15 Sunny 57 13.9 4 -15.3 12 12 SSW 5 7 30.15 1021 10 16 0.00 0.00
1:35 pm 13:35 Sunny 60 15.3 6 -14.4 12 12 ESE 5 7 30.12 1020 10 16 0.00 0.00
1:55 pm 13:55 Sunny 60 15.3 2 -16.5 10 10 E 6 9 30.12 1020 10 16 0.00 0.00
2:15 pm 14:15 Sunny 60 15.3 5 -15.2 11 11 SSE 3 6 30.12 1020 10 16 0.00 0.00
2:35 pm 14:35 Sunny 60 15.3 8 -13.1 13 13 SSW 10 17 30.09 1019 10 16 0.00 0.00
2:55 pm 14:55 Sunny 60 15.7 -4 -19.9 7 7 S 6 9 30.09 1019 10 16 0.00 0.00
3:15 pm 15:15 Sunny 61 16 -1 -18.3 8 8 S 6 9 30.09 1019 10 16 0.00 0.00
3:35 pm 15:35 Sunny 61 16 -3 -19.5 7 7 S 3 6 30.09 1019 10 16 0.00 0.00
3:55 pm 15:55 Sunny 62 16.4 -3 -19.4 7 7 SSW 8 13 30.06 1018 10 16 0.00 0.00
4:15 pm 16:15 Sunny 62 16.6 -3 -19.7 7 7 SW 6 9 30.03 1017 10 16 0.00 0.00
4:35 pm 16:35 Sunny 62 16.6 -6 -20.9 6 6 SW 7 11 30.03 1017 10 16 0.00 0.00
4:55 pm 16:55 Sunny 62 16.7 -2 -19 7 7 S 10 17 30.03 1017 10 16 0.00 0.00
5:15 pm 17:15 Sunny 62 16.8 -3 -19.6 7 7 SSW 5 7 30.03 1017 10 16 0.00 0.00
5:35 pm 17:35 Sunny 63 17 -2 -18.7 7 7 SSW 5 7 30.03 1017 10 16 0.00 0.00
5:55 pm 17:55 Sunny 63 17.1 1 -17.3 8 8 S 8 13 30.03 1017 10 16 0.00 0.00
6:15 pm 18:15 Sunny 63 17.2 -2 -18.9 7 7 SW 8 13 30.03 1017 10 16 0.00 0.00
6:35 pm 18:35 Sunny 63 17 -1 -18.1 8 8 SW 7 11 30.00 1016 10 16 0.00 0.00
6:55 pm 18:55 Sunny 62 16.8 6 -14.7 10 10 SSW 7 11 30.00 1016 10 16 0.00 0.00
7:15 pm 19:15 Sunny 62 16.6 7 -13.7 11 11 SSW 6 9 30.00 1016 10 16 0.00 0.00
7:35 pm 19:35 Sunny 60 15.6 15 -9.4 17 17 SSW 7 11 30.00 1016 10 16 0.00 0.00
7:55 pm 19:55 Sunny 60 15.3 15 -9.3 18 18 SW 5 7 30.03 1017 10 16 0.00 0.00
8:15 pm 20:15 Clear 60 15.3 11 -11.5 15 15 Calm 30.03 1017 10 16 0.00 0.00
8:35 pm 20:35 Clear 55 12.5 32 -0.2 42 42 Calm 30.03 1017 10 16 0.00 0.00
8:55 pm 20:55 Clear 50 10 34 1.2 55 55 Calm 30.03 1017 10 16 0.00 0.00
9:15 pm 21:15 Clear 49 9.6 36 2.3 61 61 Calm 30.03 1017 10 16 0.00 0.00
9:35 pm 21:35 Clear 49 9.6 34 1.2 56 56 Calm 30.03 1017 10 16 0.00 0.00
9:55 pm 21:55 Clear 49 9.6 36 2.1 60 60 Calm 30.03 1017 10 16 0.00 0.00
10:15 pm 22:15 Clear 49 9.6 36 2 59 59 Calm 30.06 1018 10 16 0.00 0.00
10:35 pm 22:35 Clear 47 8.2 33 0.3 58 58 Calm 30.06 1018 N/A 0.00 0.00
10:55 pm 22:55 Clear 46 7.6 34 1 63 63 Calm 30.06 1018 10 16 0.00 0.00
11:15 pm 23:15 Clear 43 6.1 33 0.7 69 69 Calm 30.03 1017 N/A 0.00 0.00
11:35 pm 23:35 Clear 43 6.1 33 0.5 68 68 Calm 30.03 1017 10 16 0.00 0.00
11:55 pm 23:55 Clear 43 6 33 0.3 67 67 Calm 30.06 1018 10 16 0.00 0.00

Powered by AerisWeather